www.pogodaiklimat.ru

ПОГОДА в Veraval

  • Прогноз погоды в Veraval
  • Монитор погоды в Veraval
  • Климат города

АРХИВ ПОГОДЫ в Veraval

Время (UTC), дата Ветер
(напр.,м/с)
 
Видим.   Явления Облачность Т
(С)
Тd
(С)
f
(%)
Тe
(С)
Тes
(С)
Комфортность P
(гПа)
Po
(гПа)
Тmin
(С)
Tmax
(С)
R
(мм)
S
(см)
18 9.01 СВ 2 4000 м ясно +17.6 +11.0 65 +18 +18 1014.0 1014.0
21 9.01 СВ 1 4000 м ясно +16.4 +9.4 63 +17 +17 1013.6 1014.0
00 10.01 штиль 0 4000 м ясно +13.2 +10.1 81 +13 +13 1013.3 1013.0
03 10.01 штиль 0 4000 м ясно +13.4 0.0 40 +13 +15 1016.1 1016.0 +11.8
06 10.01 С 1 10 км ясно +22.4 0.0 23 +22 +34 комфорт 1016.9 1017.0
09 10.01 СВ 1 10 км ясно +26.0 0.0 18 +24 +35 комфорт 1014.0 1014.0
12 10.01 С 1 10 км ясно +25.8 0.0 18 +24 +25 комфорт 1013.1 1013.0 +27.0
15 10.01 СВ 2 4000 м ясно +21.4 +9.5 47 +23 +23 комфорт 1015.0 1015.0
18 10.01 СВ 2 4000 м ясно +16.8 +8.2 57 +17 +17 1015.7 1016.0
21 10.01 СВ 2 4000 м ясно +15.2 +8.1 63 +15 +15 1015.0 1015.0
00 11.01 СВ 2 4000 м ясно +15.0 +5.9 54 +15 +15 1014.7 1015.0
03 11.01 СВ 2 10 км ясно +15.0 0.0 36 +15 +17 1016.6 1017.0 +12.9
06 11.01 СВ 2 10 км ясно +23.0 0.0 22 +22 +33 комфорт 1017.5 1018.0
09 11.01 СВ 1 10 км ясно +25.8 0.0 18 +24 +35 комфорт 1014.6 1015.0
12 11.01 штиль 0 10 км ясно +25.6 0.0 19 +24 +25 комфорт 1013.3 1013.0 +26.5
15 11.01 штиль 0 4000 м ясно +20.2 +8.8 48 +21 +21 комфорт 1014.3 1014.0
18 11.01 С 2 4000 м ясно +16.6 +5.9 49 +17 +17 1014.9 1015.0
21 11.01 СВ 1 4000 м ясно +15.2 +5.6 53 +16 +16 1013.8 1014.0
00 12.01 СВ 2 4000 м ясно +14.4 +2.8 46 +14 +14 1013.6 1014.0
03 12.01 СВ 1 10 км ясно +14.6 0.0 37 +15 +17 1014.9 1015.0 +13.0
06 12.01 СВ 1 10 км ясно +23.2 0.0 21 +22 +34 комфорт 1015.7 1016.0
09 12.01 ЮЗ 2 10 км ясно +27.2 0.0 17 +25 +35 комфорт 1012.8 1013.0
12 12.01 Ю 4 10 км ясно +25.2 +8.0 33 +24 +24 комфорт 1011.5 1012.0 +28.0
15 12.01 В 2 4000 м ясно +21.8 +15.1 66 +25 +25 комфорт 1013.1 1013.0
18 12.01 СВ 1 4000 м ясно +18.2 +12.5 69 +20 +20 1013.3 1013.0
21 12.01 СВ 2 4000 м ясно +16.0 +7.2 56 +16 +16 1013.1 1013.0
00 13.01 СВ 2 4000 м ясно +14.4 +5.1 54 +14 +14 1013.0 1013.0
03 13.01 штиль 0 10 км ясно +14.2 0.0 38 +14 +16 1014.2 1014.0 +12.0
06 13.01 В 2 10 км ясно +23.8 0.0 21 +23 +34 комфорт 1014.7 1015.0
09 13.01 З 2 10 км ясно +27.0 0.0 17 +25 +34 комфорт 1011.6 1012.0
12 13.01 С 1 10 км ясно +26.8 0.0 17 +25 +25 комфорт 1010.5 1011.0 +27.6
15 13.01 СВ 1 4000 м ясно +20.6 +4.9 36 +24 +24 комфорт 1011.8 1012.0
18 13.01 СВ 1 4000 м ясно +17.8 +9.0 56 +19 +19 1012.5 1013.0
21 13.01 СВ 1 4000 м ясно +15.8 +6.4 54 +17 +17 1011.4 1011.0
00 14.01 СВ 2 4000 м ясно +15.6 +5.1 50 +16 +16 1010.3 1010.0
03 14.01 СВ 2 10 км ясно +15.8 0.0 34 +16 +17 1012.4 1012.0 +14.5
06 14.01 В 3 10 км 3/0
[Ci fib]
+25.0 0.0 19 +23 +33 комфорт 1013.7 1014.0
09 14.01 ЮВ 3 10 км ясно +27.4 0.0 17 +25 +34 комфорт 1011.8 1012.0
12 14.01 ЮЗ 2 10 км ясно +26.6 +9.4 34 +25 +25 комфорт 1011.7 1012.0 +27.6
15 14.01 штиль 0 4000 м ясно +22.8 +18.4 76 +28 +28 душно 1014.0 1014.0
18 14.01 штиль 0 4000 м ясно +20.0 +17.1 83 +23 +23 комфорт 1014.9 1015.0
21 14.01 штиль 0 4000 м 3/0
[Ac trans]
+18.0 +12.6 71 +18 +18 1013.8 1014.0
00 15.01 штиль 0 4000 м 6/0
[Ac trans]
+16.0 +10.8 71 +16 +16 1012.9 1013.0
03 15.01 штиль 0 4000 м 4/0
[Ci fib]
+16.2 0.0 33 +16 +18 1015.0 1015.0 +15.4
06 15.01 штиль 0 4000 м ясно +25.2 0.0 19 +24 +38 комфорт 1016.5 1017.0
09 15.01 З 2 10 км ясно +28.4 0.0 16 +26 +36 жарко 1014.1 1014.0
12 15.01 З 2 10 км ясно +27.2 0.0 17 +25 +26 комфорт 1013.9 1014.0 +28.6
15 15.01 С 1 4000 м ясно +22.6 +8.1 39 +27 +27 душно 1014.6 1015.0
18 15.01 штиль 0 4000 м ясно +20.0 +15.6 76 +22 +22 комфорт 1015.6 1016.0
21 15.01 СВ 1 4000 м ясно +18.2 +14.0 76 +20 +20 1015.1 1015.0
00 16.01 СВ 2 4000 м ясно +16.6 +8.9 60 +17 +17 1014.9 1015.0
03 16.01 СВ 2 10 км 4/0
[Ci fib]
+18.0 0.0 30 +19 +20 1016.9 1017.0 +16.0
06 16.01 СВ 3 10 км 4/0
[Ci fib]
+24.6 0.0 20 +23 +31 комфорт 1017.5 1018.0
09 16.01 ЮЗ 2 10 км 5/0
[Ci fib]
+30.8 0.0 14 +28 +37 жарко 1014.6 1015.0
12 16.01 З 2 10 км ясно +27.0 0.0 17 +25 +26 комфорт 1013.8 1014.0 +31.0
15 16.01 С 1 4000 м ясно +23.0 +13.8 56 +26 +26 жарко 1015.7 1016.0

 

Местоположение метеостанции Veraval (Gujarat, Индия): широта 20.90 долгота 70.37 высота над уровнем моря 8 м.

В архиве по умолчанию представлена погода в Veraval за последнюю неделю. Архивные данные за месяц целиком и за предыдущие месяцы, начиная с января 2011 года, Вы можете получить, выбрав интересующий диапазон дат из раскрывающегося списка и нажав кнопку "Ввод!".

Внимание! Время в таблицах - всемирное. Для получения местного времени необходимо прибавить поправку, которая в Veraval равна 5.5 ч.

Ветер - указаны скорость ветра в м/с - средняя за 10 мин, порывы в срок и между сроками (в фигурных скобках) и направление, откуда дует ветер: С - северный, СВ - северо-восточный, В - восточный, ЮВ - юго-восточный, Ю - южный, ЮЗ - юго-западный, З - западный, СЗ - северо-западный.
Видимость - горизонтальная дальность видимости в метрах или километрах. При видимости от 1 до 10 км при отсутствии осадков обычно наблюдается дымка, при ухудшении видимости до 1 км и менее - туман. В сухую погоду видимость может ухудшаться дымом, пылью или мглою.
Явления - указаны атмосферные явления, наблюдавшиеся в срок или в последний час перед сроком; фигурными скобками обозначены явления, наблюдавшиеся между сроками (за 1-3 часа до срока); квадратными скобками обозначены град или гололедные отложения с указанием их диаметра в мм.
Облачность - указаны через наклонную черту общая и нижняя облачность в баллах и высота нижней границы облаков в метрах; квадратными скобками обозначены формы облаков: Ci - перистые, Cs - перисто-слоистые, Cc - перисто-кучевые, Ac - высококучевые, As - высокослоистые, Sc - слоисто-кучевые, Ns - слоисто-дождевые, Cu - кучевые, Cb - кучево-дождевые. Подробнее классификацию облаков см. в Атласе облаков (PDF).
T - Температура воздуха - температура, измеренная на высоте 2 м над землей.
Td - Температура точки росы - температура, при понижении до которой содержащийся в воздухе водяной пар достигнет насыщения.
f - Относительная влажность воздуха - влажноcть воздуха, измеренная на высоте 2 м над землей.
Te - Эффективная температура - температура, которую ощущает одетый по сезону человек в тени. Характеристика душности погоды. При расчете учитывается влияние влажности воздуха и скорости ветра на теплоощущения человека.
Tes - Эффективная температура на солнце - температура, которую ощущает человек, с поправкой на солнечный нагрев. Характеристика знойности погоды. Зависит от высоты солнца над горизонтом, облачности и скорости ветра. Ночью, в пасмурную погоду, а также при ветре 12 м/с и более поправка равна нулю.
P - Атмосферное давление - приведенное к уровню моря атмосферное давление.
Po - Атмосферное давление - измеренное на уровне метеостанции атмосферное давление.
Tmin - Минимальная температура - минимум температуры воздуха на высоте 2 м над землей.
Tmax - Максимальная температура - максимум температуры воздуха на высоте 2 м над землей.
R - Количество осадков - Количество выпавших осадков, мм. При наведении курсора мыши на число - период времени, за который выпало указанное количество осадков.
S - Снежный покров - Высота снежного покрова, см. При наведении курсора мыши на число - состояние снежного покрова и степень покрытия местности в баллах.